Date String (YYYY-MM-DD hh:mm:ss) UTC,Instrument flags,Ambient pressure (hPa),Sample flow (lpm),Bypass flow (lpm),Sample temperature (°C),Ambient temperature (°C),ASC tube jacket temperature (°C),LED temperature (°C),Box temperature (°C),Sample RH (%),Span deviation,Mass concentration (μg/m³),Mass concentration (μg/m³),Mass concentration (μg/m³)
DateTimeUTC,F1_M11,P_M11,Q1_M11,Q2_M11,T1_M11,T2_M11,T3_M11,T4_M11,T5_M11,U1_M11,ZSPAN_M11,X2_M11,X0_M11,X1_M11
2022-08-20 14:00:00,,0830.9,5.00,0.00,30.4,29.0,00.0,39.3,32.2,24.8,0000.0,0007.04,0015.19,0005.61
2022-08-20 14:01:00,,0831.0,5.00,0.00,30.4,29.1,00.0,39.3,32.3,24.9,0000.0,0007.07,0016.23,0005.60
2022-08-20 14:02:00,,0830.9,5.00,0.00,30.4,29.1,00.0,39.3,32.3,24.1,0000.0,0007.09,0016.44,0005.59
2022-08-20 14:03:00,,0830.9,5.00,0.00,30.4,29.2,00.0,39.3,32.3,23.9,0000.0,0007.02,0016.50,0005.56
2022-08-20 14:04:00,,0830.9,4.99,0.00,30.5,29.2,00.0,39.3,32.3,23.4,0000.0,0007.01,0016.48,0005.57
2022-08-20 14:05:00,,0831.0,5.00,0.00,30.5,29.3,00.0,39.3,32.3,23.3,0000.0,0007.05,0016.50,0005.57
2022-08-20 14:06:00,,0830.9,5.00,0.00,30.5,29.3,00.0,39.3,32.3,22.8,0000.0,0007.06,0016.60,0005.57
2022-08-20 14:07:00,,0830.9,5.01,0.00,30.5,29.4,00.0,39.3,32.3,23.2,0000.0,0006.98,0016.01,0005.56
2022-08-20 14:08:00,,0830.9,4.99,0.00,30.5,29.4,00.0,39.3,32.4,22.7,0000.0,0006.87,0015.31,0005.54
2022-08-20 14:09:00,,0830.9,5.00,0.00,30.5,29.4,00.0,39.3,32.4,23.3,0000.0,0006.83,0015.48,0005.52
2022-08-20 14:10:00,,0830.9,5.00,0.00,30.5,29.5,00.0,39.3,32.4,23.8,0000.0,0006.80,0015.30,0005.49
2022-08-20 14:11:00,,0830.9,5.00,0.00,30.6,29.5,00.0,39.3,32.4,23.0,0000.0,0006.74,0014.85,0005.46
2022-08-20 14:12:00,,0830.9,5.00,0.00,30.6,29.5,00.0,39.3,32.5,23.4,0000.0,0006.69,0013.57,0005.45
2022-08-20 14:13:00,,0830.9,5.01,0.00,30.6,29.6,00.0,39.3,32.5,23.5,0000.0,0006.67,0013.67,0005.46
2022-08-20 14:14:00,,0830.9,4.98,0.00,30.6,29.6,00.0,39.4,32.5,23.1,0000.0,0006.67,0013.45,0005.45
2022-08-20 14:15:00,,0830.9,5.01,0.00,30.6,29.6,00.0,39.4,32.5,22.7,0000.0,0006.64,0013.47,0005.44
2022-08-20 14:16:00,,0830.9,5.01,0.00,30.7,29.6,00.0,39.4,32.5,23.1,0000.0,0006.54,0013.49,0005.43
2022-08-20 14:17:00,,0830.9,4.98,0.00,30.7,29.7,00.0,39.4,32.5,23.2,0000.0,0006.50,0013.45,0005.42
2022-08-20 14:18:00,,0830.9,4.99,0.00,30.7,29.7,00.0,39.4,32.6,22.7,0000.0,0006.53,0013.54,0005.43
2022-08-20 14:19:00,,0830.9,5.00,0.00,30.7,29.7,00.0,39.4,32.6,22.7,0000.0,0006.59,0013.75,0005.44
2022-08-20 14:20:00,,0830.9,5.00,0.00,30.7,29.7,00.0,39.4,32.6,22.7,0000.0,0006.61,0013.44,0005.43
2022-08-20 14:21:00,,0830.9,5.01,0.00,30.7,29.7,00.0,39.5,32.6,23.0,0000.0,0006.55,0013.59,0005.40
2022-08-20 14:22:00,,0830.9,5.00,0.00,30.8,29.8,00.0,39.5,32.6,23.1,0000.0,0006.54,0014.04,0005.36
2022-08-20 14:23:00,,0830.9,4.99,0.00,30.8,29.8,00.0,39.5,32.6,23.2,0000.0,0006.55,0014.22,0005.34
2022-08-20 14:24:00,,0830.9,5.01,0.00,30.8,29.8,00.0,39.5,32.6,22.8,0000.0,0006.48,0014.08,0005.30
2022-08-20 14:25:00,,0831.0,5.00,0.00,30.8,29.8,00.0,39.5,32.6,23.1,0000.0,0006.44,0014.49,0005.27
2022-08-20 14:26:00,,0830.9,4.99,0.00,30.8,29.8,00.0,39.5,32.7,23.2,0000.0,0006.48,0014.50,0005.26
2022-08-20 14:27:00,,0831.0,5.00,0.00,30.8,29.9,00.0,39.5,32.7,22.5,0000.0,0006.45,0014.42,0005.23
2022-08-20 14:28:00,,0830.9,5.00,0.00,30.9,29.9,00.0,39.6,32.7,22.5,0000.0,0006.38,0014.47,0005.19
2022-08-20 14:29:00,,0830.9,5.00,0.00,30.9,29.9,00.0,39.6,32.8,22.4,0000.0,0006.33,0015.38,0005.16
2022-08-20 14:30:00,,0831.0,5.00,0.00,30.9,29.6,00.0,39.6,32.7,22.5,0000.0,0006.29,0015.18,0005.12
2022-08-20 14:31:00,,0830.9,4.99,0.00,30.8,28.8,00.0,39.5,32.4,22.6,0000.0,0006.30,0015.93,0005.12
2022-08-20 14:32:00,,0830.9,5.02,0.00,30.7,28.2,00.0,39.5,32.3,22.8,0000.0,0006.31,0015.97,0005.12
2022-08-20 14:33:00,,0831.0,4.99,0.00,30.6,28.1,00.0,39.4,32.2,23.4,0000.0,0006.32,0014.96,0005.12
2022-08-20 14:34:00,,0831.0,5.01,0.00,30.6,28.2,00.0,39.4,32.1,23.4,0000.0,0006.28,0015.67,0005.12
2022-08-20 14:35:00,,0831.0,4.99,0.00,30.5,28.3,00.0,39.4,32.1,23.8,0000.0,0006.28,0015.78,0005.11
2022-08-20 14:36:00,,0831.1,5.01,0.00,30.5,28.4,00.0,39.4,32.1,23.3,0000.0,0006.26,0015.10,0005.11
2022-08-20 14:37:00,,0831.1,5.00,0.00,30.5,28.6,00.0,39.4,32.2,24.4,0000.0,0006.20,0015.18,0005.11
2022-08-20 14:38:00,,0831.0,5.00,0.00,30.4,28.7,00.0,39.3,32.2,23.5,0000.0,0006.23,0015.45,0005.12
2022-08-20 14:39:00,,0831.0,5.00,0.00,30.4,28.8,00.0,39.3,32.2,23.9,0000.0,0006.28,0015.76,0005.12
2022-08-20 14:40:00,,0831.0,5.01,0.00,30.4,28.9,00.0,39.3,32.2,24.2,0000.0,0006.27,0014.93,0005.12
2022-08-20 14:41:00,,0831.0,5.00,0.00,30.4,29.0,00.0,39.3,32.2,24.2,0000.0,0006.26,0014.89,0005.12
2022-08-20 14:42:00,,0831.0,5.00,0.00,30.5,29.1,00.0,39.3,32.3,24.7,0000.0,0006.23,0014.74,0005.12
2022-08-20 14:43:00,,0831.1,5.00,0.00,30.5,29.2,00.0,39.3,32.3,24.3,0000.0,0006.23,0015.12,0005.11
2022-08-20 14:44:00,,0831.0,5.00,0.00,30.5,29.3,00.0,39.3,32.3,24.5,0000.0,0006.25,0016.23,0005.10
2022-08-20 14:45:00,,0831.1,5.00,0.00,30.5,29.3,00.0,39.3,32.3,24.4,0000.0,0006.23,0015.76,0005.10
2022-08-20 14:46:00,,0831.1,5.00,0.00,30.5,29.4,00.0,39.3,32.3,24.5,0000.0,0006.24,0015.47,0005.11
2022-08-20 14:47:00,,0831.1,4.99,0.00,30.5,29.4,00.0,39.3,32.4,23.8,0000.0,0006.22,0016.37,0005.10
2022-08-20 14:48:00,,0831.0,5.00,0.00,30.5,29.5,00.0,39.3,32.4,23.1,0000.0,0006.21,0017.07,0005.09
2022-08-20 14:49:00,,0831.0,5.01,0.00,30.6,29.5,00.0,39.3,32.4,23.2,0000.0,0006.21,0018.09,0005.08
2022-08-20 14:50:00,,0831.0,5.00,0.00,30.6,29.6,00.0,39.3,32.4,23.2,0000.0,0006.19,0018.17,0005.08
2022-08-20 14:51:00,,0831.0,5.01,0.00,30.6,29.6,00.0,39.4,32.5,23.4,0000.0,0006.19,0018.26,0005.08
2022-08-20 14:52:00,,0831.0,4.99,0.00,30.6,29.7,00.0,39.4,32.5,23.3,0000.0,0006.13,0019.23,0005.07
2022-08-20 14:53:00,,0831.0,5.00,0.00,30.7,29.7,00.0,39.4,32.6,23.0,0000.0,0006.11,0019.15,0005.07
2022-08-20 14:54:00,,0831.0,5.00,0.00,30.7,29.7,00.0,39.4,32.6,23.2,0000.0,0006.10,0018.80,0005.07
2022-08-20 14:55:00,,0831.0,4.99,0.00,30.7,29.8,00.0,39.4,32.6,23.0,0000.0,0006.05,0017.93,0005.08
2022-08-20 14:56:00,,0831.0,5.01,0.00,30.7,29.8,00.0,39.4,32.6,23.4,0000.0,0006.06,0017.88,0005.10
2022-08-20 14:57:00,,0831.0,5.01,0.00,30.7,29.8,00.0,39.5,32.6,23.2,0000.0,0006.09,0017.90,0005.11
2022-08-20 14:58:00,,0831.0,4.99,0.00,30.8,29.8,00.0,39.5,32.6,22.8,0000.0,0006.09,0017.18,0005.12
2022-08-20 14:59:00,,0831.0,5.00,0.00,30.8,29.8,00.0,39.5,32.6,23.1,0000.0,0006.09,0016.86,0005.13
